GW3780 Weather Reports


Display with metric or nautical units.
time (UTC)temp
F
wind
direction
speed
MPH
gust
MPH
rain 1hr
in
rain 24hr
in
rain mn
in
humidity
%
barometer
mb
20260510190542 84 259 1.0 3.0 0.00 0.00 0.00 33 1014.6
20260510190040 84 340 2.0 2.0 0.00 0.00 0.00 34 1014.6
20260510185536 83 234 3.0 4.0 0.00 0.00 0.00 34 1014.5
20260510185034 83 145 2.0 5.0 0.00 0.00 0.00 36 1014.6
20260510184531 82 358 0.0 4.0 0.00 0.00 0.00 35 1014.5
20260510184026 82 239 2.0 4.0 0.00 0.00 0.00 34 1014.6
20260510183522 84 255 4.0 5.0 0.00 0.00 0.00 34 1014.7
20260510183017 84 229 2.0 4.0 0.00 0.00 0.00 33 1014.6
20260510182514 84 252 1.0 3.0 0.00 0.00 0.00 34 1014.7
20260510182009 84 304 0.0 2.0 0.00 0.00 0.00 34 1014.5
20260510181508 83 299 1.0 6.0 0.00 0.00 0.00 34 1014.7
20260510181003 83 226 2.0 4.0 0.00 0.00 0.00 33 1014.6
20260510180500 83 289 2.0 2.0 0.00 0.00 0.00 34 1014.6
20260510175957 83 223 2.0 5.0 0.00 0.00 0.00 34 1014.7
20260510175453 82 104 0.0 4.0 0.00 0.00 0.00 35 1014.8
20260510174948 82 271 2.0 4.0 0.00 0.00 0.00 35 1014.6
20260510174447 82 244 3.0 3.0 0.00 0.00 0.00 34 1014.6
20260510173944 82 321 1.0 3.0 0.00 0.00 0.00 34 1014.8
20260510173439 82 272 2.0 4.0 0.00 0.00 0.00 35 1014.7
20260510172936 82 313 1.0 3.0 0.00 0.00 0.00 38 1014.8
20260510172432 82 1 2.0 4.0 0.00 0.00 0.00 36 1014.8
20260510171928 82 218 2.0 3.0 0.00 0.00 0.00 36 1014.5
20260510171425 82 199 2.0 3.0 0.00 0.00 0.00 37 1014.8
20260510170922 82 8 2.0 4.0 0.00 0.00 0.00 36 1015.0
20260510170418 81 206 1.0 3.0 0.00 0.00 0.00 38 1015.3
20260510165914 80 256 0.0 2.0 0.00 0.00 0.00 35 1015.1
20260510165410 80 156 0.0 3.0 0.00 0.00 0.00 36 1015.2
20260510164908 80 264 1.0 5.0 0.00 0.00 0.00 37 1015.4
20260510164404 80 143 0.0 2.0 0.00 0.00 0.00 37 1015.4
20260510163859 80 228 2.0 4.0 0.00 0.00 0.00 35 1015.4
20260510163355 80 218 0.0 2.0 0.00 0.00 0.00 38 1015.2
20260510162849 80 138 0.0 4.0 0.00 0.00 0.00 37 1015.6
20260510162347 80 280 1.0 2.0 0.00 0.00 0.00 39 1015.3
20260510161842 80 261 2.0 2.0 0.00 0.00 0.00 38 1015.2
20260510161339 79 283 0.0 2.0 0.00 0.00 0.00 43 1015.4
20260510160836 80 267 1.0 2.0 0.00 0.00 0.00 43 1015.4
20260510160332 79 287 0.0 4.0 0.00 0.00 0.00 44 1015.3
20260510155826 79 264 1.0 1.0 0.00 0.00 0.00 43 1015.6
20260510155324 79 264 2.0 2.0 0.00 0.00 0.00 43 1015.7
20260510154819 79 205 1.0 2.0 0.00 0.00 0.00 45 1015.6
20260510154315 78 297 2.0 3.0 0.00 0.00 0.00 46 1015.7
20260510153810 78 292 2.0 2.0 0.00 0.00 0.00 45 1015.6
20260510153306 78 154 0.0 2.0 0.00 0.00 0.00 45 1015.7
20260510152803 78 191 1.0 3.0 0.00 0.00 0.00 44 1015.5
20260510152300 79 341 0.0 1.0 0.00 0.00 0.00 45 1015.8
20260510151756 78 79 0.0 2.0 0.00 0.00 0.00 45 1015.7
20260510151255 78 255 0.0 1.0 0.00 0.00 0.00 47 1015.9
20260510150750 77 279 0.0 2.0 0.00 0.00 0.00 48 1015.8
20260510150246 77 327 1.0 2.0 0.00 0.00 0.00 50 1015.8
20260510145742 76 322 0.0 2.0 0.00 0.00 0.00 49 1015.9
20260510145239 75 285 0.0 3.0 0.00 0.00 0.00 50 1015.9
20260510144734 75 222 1.0 2.0 0.00 0.00 0.00 51 1016.1
20260510144232 75 269 0.0 2.0 0.00 0.00 0.00 52 1016.1
20260510143726 75 269 0.0 2.0 0.00 0.00 0.00 51 1015.9
20260510143223 75 301 0.0 2.0 0.00 0.00 0.00 52 1015.7
20260510142719 75 310 1.0 2.0 0.00 0.00 0.00 54 1015.8
20260510142216 74 296 0.0 2.0 0.00 0.00 0.00 55 1015.8
20260510141714 74 329 1.0 3.0 0.00 0.00 0.00 54 1015.7
20260510141212 73 304 1.0 2.0 0.00 0.00 0.00 55 1015.8
20260510140708 73 297 0.0 2.0 0.00 0.00 0.00 57 1015.5
20260510140208 73 245 0.0 2.0 0.00 0.00 0.00 57 1015.7
20260510135703 73 160 2.0 2.0 0.00 0.00 0.00 57 1015.6
20260510135159 73 303 1.0 2.0 0.00 0.00 0.00 58 1015.7
20260510134656 74 286 0.0 1.0 0.00 0.00 0.00 55 1015.6
20260510134153 73 353 1.0 2.0 0.00 0.00 0.00 56 1015.9
20260510133649 74 333 0.0 1.0 0.00 0.00 0.00 55 1015.7
20260510133144 73 184 1.0 2.0 0.00 0.00 0.00 56 1015.7
20260510132641 74 289 0.0 1.0 0.00 0.00 0.00 56 1015.8
20260510132139 74 318 0.0 1.0 0.00 0.00 0.00 56 1015.5
20260510131636 72 246 0.0 1.0 0.00 0.00 0.00 59 1015.6
20260510131134 73 184 0.0 0.0 0.00 0.00 0.00 59 1015.8
20260510130630 71 299 0.0 1.0 0.00 0.00 0.00 65 1015.8
20260510130127 70 322 0.0 0.0 0.00 0.00 0.00 67 1015.8
20260510125624 70 193 0.0 0.0 0.00 0.00 0.00 67 1015.6
20260510125120 69 257 0.0 2.0 0.00 0.00 0.00 69 1015.5
20260510124617 68 269 0.0 0.0 0.00 0.00 0.00 70 1015.5
20260510124114 68 167 0.0 2.0 0.00 0.00 0.00 71 1015.4
20260510123609 67 0 0.0 2.0 0.00 0.00 0.00 74 1015.4
20260510123105 65 37 0.0 1.0 0.00 0.00 0.00 79 1015.4
20260510122601 64 137 0.0 1.0 0.00 0.00 0.00 79 1015.4
20260510122057 64 290 0.0 2.0 0.00 0.00 0.00 81 1015.4
20260510121554 63 32 0.0 2.0 0.00 0.00 0.00 83 1015.3
20260510121052 63 248 0.0 1.0 0.00 0.00 0.00 84 1015.0
20260510120549 62 119 1.0 2.0 0.00 0.00 0.00 84 1014.8
20260510120044 61 293 0.0 2.0 0.00 0.00 0.00 86 1014.8
20260510115541 61 137 0.0 2.0 0.00 0.00 0.00 89 1014.7
20260510115038 60 191 2.0 2.0 0.00 0.00 0.00 91 1014.8
20260510114534 59 59 0.0 2.0 0.00 0.00 0.00 96 1014.6
20260510114030 58 131 0.0 2.0 0.00 0.00 0.00 98 1014.7
20260510113526 58 5 0.0 2.0 0.00 0.00 0.00 99 1014.6
20260510113024 57 290 0.0 2.0 0.00 0.00 0.00 99 1014.7
20260510112520 57 121 0.0 1.0 0.00 0.00 0.00 99 1014.6
20260510112016 57 293 0.0 1.0 0.00 0.00 0.00 99 1014.6
20260510111513 57 302 0.0 2.0 0.00 0.00 0.00 99 1014.2
20260510111009 56 269 0.0 2.0 0.00 0.00 0.00 99 1014.4
20260510110505 56 30 0.0 2.0 0.00 0.00 0.00 99 1014.3
20260510110002 56 127 0.0 2.0 0.00 0.00 0.00 99 1014.3
20260510105456 56 223 0.0 2.0 0.00 0.00 0.00 99 1014.4
20260510104952 55 65 1.0 2.0 0.00 0.00 0.00 99 1014.2
20260510104449 55 31 0.0 2.0 0.00 0.00 0.00 99 1014.0
20260510103945 55 72 0.0 2.0 0.00 0.00 0.00 99 1014.0
20260510103443 55 284 0.0 1.0 0.00 0.00 0.00 99 1013.9
20260510102938 54 334 0.0 2.0 0.00 0.00 0.00 99 1013.7
20260510102434 54 35 0.0 2.0 0.00 0.00 0.00 99 1013.7
20260510101931 54 113 0.0 2.0 0.00 0.00 0.00 99 1013.9
20260510101429 54 343 0.0 1.0 0.00 0.00 0.00 99 1013.8
20260510100927 54 38 0.0 2.0 0.00 0.00 0.00 99 1013.6
20260510100423 54 19 0.0 2.0 0.00 0.00 0.00 99 1013.7
20260510095919 54 32 0.0 2.0 0.00 0.00 0.00 99 1013.5
20260510095415 54 304 0.0 2.0 0.00 0.00 0.00 99 1013.6
20260510094914 55 22 0.0 1.0 0.00 0.00 0.00 99 1013.3
20260510094409 55 345 0.0 2.0 0.00 0.00 0.00 99 1013.4
20260510093905 55 52 0.0 1.0 0.00 0.00 0.00 99 1013.4
20260510093401 55 330 1.0 2.0 0.00 0.00 0.00 99 1013.4
20260510092858 55 172 2.0 2.0 0.00 0.00 0.00 99 1013.3
20260510092355 55 119 1.0 2.0 0.00 0.00 0.00 99 1013.3
20260510091849 55 215 0.0 2.0 0.00 0.00 0.00 98 1013.3
20260510091347 55 24 1.0 2.0 0.00 0.00 0.00 98 1013.1
20260510090843 56 16 0.0 2.0 0.00 0.00 0.00 98 1013.0
20260510090340 56 352 0.0 1.0 0.00 0.00 0.00 98 1013.1
20260510085835 56 309 0.0 1.0 0.00 0.00 0.00 98 1012.7
20260510085330 56 348 1.0 2.0 0.00 0.00 0.00 98 1012.6
20260510084826 56 3 0.0 1.0 0.00 0.00 0.00 97 1013.0
20260510084324 57 74 0.0 1.0 0.00 0.00 0.00 97 1012.6
20260510083820 57 84 0.0 1.0 0.00 0.00 0.00 97 1012.8
20260510083317 57 296 0.0 2.0 0.00 0.00 0.00 96 1012.9
20260510082812 57 307 0.0 0.0 0.00 0.00 0.00 96 1012.5
20260510082310 57 70 0.0 2.0 0.00 0.00 0.00 96 1012.7
20260510081809 58 219 0.0 2.0 0.00 0.00 0.00 96 1012.6
20260510081305 58 93 0.0 2.0 0.00 0.00 0.00 96 1012.7
20260510080801 58 23 0.0 1.0 0.00 0.00 0.00 96 1012.6
20260510080255 58 322 0.0 2.0 0.00 0.00 0.00 96 1012.6
20260510075753 59 224 0.0 0.0 0.00 0.00 0.00 95 1012.6
20260510075250 59 336 0.0 1.0 0.00 0.00 0.00 95 1012.6
20260510074747 59 156 1.0 1.0 0.00 0.00 0.00 95 1012.4
20260510074244 59 5 2.0 2.0 0.00 0.00 0.00 94 1012.5
20260510073740 59 320 2.0 2.0 0.00 0.00 0.00 94 1012.5
20260510073236 59 14 1.0 2.0 0.00 0.00 0.00 94 1012.8
20260510072732 59 99 0.0 2.0 0.00 0.00 0.00 93 1012.6
20260510072229 59 89 0.0 1.0 0.00 0.00 0.00 93 1012.5
20260510071725 60 63 0.0 2.0 0.00 0.00 0.00 92 1012.5
20260510071222 60 21 1.0 2.0 0.00 0.00 0.00 92 1012.4
20260510070720 61 309 0.0 1.0 0.00 0.00 0.00 92 1012.4
20260510070218 61 311 0.0 1.0 0.00 0.00 0.00 91 1012.6
20260510065712 61 253 1.0 1.0 0.00 0.00 0.00 91 1012.5
20260510065208 61 55 1.0 1.0 0.00 0.00 0.00 91 1012.6
20260510064705 61 229 0.0 1.0 0.00 0.00 0.00 91 1012.7
20260510064203 61 37 1.0 2.0 0.00 0.00 0.00 90 1012.6
20260510063700 61 269 0.0 1.0 0.00 0.00 0.00 90 1012.5
20260510063155 61 307 0.0 1.0 0.00 0.00 0.00 89 1012.5
20260510062652 62 274 1.0 2.0 0.00 0.00 0.00 89 1012.5
20260510062148 62 212 0.0 1.0 0.00 0.00 0.00 89 1012.7
20260510061643 62 235 0.0 3.0 0.00 0.00 0.00 88 1012.5
20260510061141 62 162 0.0 2.0 0.00 0.00 0.00 88 1012.4
20260510060637 62 265 0.0 2.0 0.00 0.00 0.00 87 1012.5
20260510060134 63 304 0.0 3.0 0.00 0.00 0.00 87 1012.5
20260510055630 63 228 1.0 2.0 0.00 0.00 0.00 86 1012.5
20260510055128 63 310 0.0 2.0 0.00 0.00 0.00 86 1012.5
20260510054624 63 293 0.0 2.0 0.00 0.00 0.00 85 1012.7
20260510054119 64 223 1.0 2.0 0.00 0.00 0.00 85 1012.5
20260510053619 64 196 2.0 2.0 0.00 0.00 0.00 84 1012.4
20260510053115 64 252 1.0 2.0 0.00 0.00 0.00 84 1012.4
20260510052611 64 215 1.0 2.0 0.00 0.00 0.00 83 1012.4
20260510052108 64 168 1.0 3.0 0.00 0.00 0.00 83 1012.6
20260510051603 65 163 0.0 3.0 0.00 0.00 0.00 82 1012.7
20260510051101 65 273 1.0 2.0 0.00 0.00 0.00 82 1012.5
20260510050558 65 269 0.0 2.0 0.00 0.00 0.00 82 1012.6
20260510050055 65 230 0.0 2.0 0.00 0.00 0.00 81 1012.4
20260510045552 65 252 0.0 2.0 0.00 0.00 0.00 81 1012.4
20260510045048 65 259 0.0 2.0 0.00 0.00 0.00 80 1012.6
20260510044545 65 235 0.0 2.0 0.00 0.00 0.00 80 1012.6
20260510044042 65 226 1.0 2.0 0.00 0.00 0.00 80 1012.3
20260510043537 66 184 1.0 2.0 0.00 0.00 0.00 79 1012.3
20260510043033 66 246 2.0 2.0 0.00 0.00 0.00 79 1012.4
20260510042527 66 248 1.0 4.0 0.00 0.00 0.00 79 1012.5
20260510042022 66 330 0.0 3.0 0.00 0.00 0.00 78 1012.4
20260510041520 66 222 0.0 2.0 0.00 0.00 0.00 78 1012.4
20260510041017 66 202 2.0 3.0 0.00 0.00 0.00 77 1012.5
20260510040514 66 267 1.0 4.0 0.00 0.00 0.00 77 1012.3
20260510040009 66 234 0.0 3.0 0.00 0.00 0.00 77 1012.5
20260510035506 66 246 1.0 4.0 0.00 0.00 0.00 76 1012.1
20260510035005 66 269 0.0 2.0 0.00 0.00 0.00 77 1012.3
20260510034504 66 222 0.0 1.0 0.00 0.00 0.00 77 1012.2
20260510034000 66 299 0.0 1.0 0.00 0.00 0.00 76 1012.1
20260510033456 66 310 0.0 1.0 0.00 0.00 0.00 76 1012.2
20260510032954 66 326 0.0 1.0 0.00 0.00 0.00 75 1012.1
20260510032451 66 237 0.0 2.0 0.00 0.00 0.00 75 1012.2
20260510031951 67 213 2.0 2.0 0.00 0.00 0.00 74 1012.1
20260510031447 66 230 0.0 2.0 0.00 0.00 0.00 74 1012.3
20260510030943 67 326 0.0 2.0 0.00 0.00 0.00 74 1012.0
20260510030438 67 322 0.0 0.0 0.00 0.00 0.00 73 1012.0
20260510025936 67 217 1.0 4.0 0.00 0.00 0.00 73 1012.2
20260510025433 67 315 0.0 2.0 0.00 0.00 0.00 73 1012.0
20260510024930 67 225 0.0 2.0 0.00 0.00 0.00 72 1012.0
20260510024427 67 166 0.0 1.0 0.00 0.00 0.00 72 1011.9
20260510023923 67 256 0.0 2.0 0.00 0.00 0.00 72 1011.8
20260510023419 67 225 1.0 2.0 0.00 0.00 0.00 72 1011.7
20260510022917 67 248 1.0 2.0 0.00 0.00 0.00 72 1011.8
20260510022415 67 221 0.0 2.0 0.00 0.00 0.00 71 1011.9
20260510021914 67 309 0.0 1.0 0.00 0.00 0.00 71 1011.6
20260510021413 67 32 0.0 3.0 0.00 0.00 0.00 70 1011.5
20260510020909 67 258 0.0 2.0 0.00 0.00 0.00 70 1011.7
20260510020404 67 316 1.0 2.0 0.00 0.00 0.00 70 1011.6
20260510015900 67 315 0.0 1.0 0.00 0.00 0.00 69 1011.5
20260510015356 67 304 0.0 2.0 0.00 0.00 0.00 69 1011.4
20260510014851 67 314 0.0 1.0 0.00 0.00 0.00 69 1011.2
20260510014349 67 322 0.0 1.0 0.00 0.00 0.00 68 1011.3
20260510013845 67 297 1.0 1.0 0.00 0.00 0.00 69 1011.1
20260510013340 67 301 0.0 2.0 0.00 0.00 0.00 68 1011.2
20260510012835 67 212 0.0 1.0 0.00 0.00 0.00 70 1011.1
20260510012330 66 319 0.0 1.0 0.00 0.00 0.00 70 1011.0
20260510011825 66 321 0.0 2.0 0.00 0.00 0.00 70 1010.9
20260510011321 66 310 0.0 1.0 0.00 0.00 0.00 69 1010.8
20260510010817 66 5 0.0 1.0 0.00 0.00 0.00 69 1011.0
20260510010315 67 332 0.0 1.0 0.00 0.00 0.00 68 1011.0
20260510005811 67 37 0.0 0.0 0.00 0.00 0.00 67 1010.9
20260510005307 67 333 0.0 0.0 0.00 0.00 0.00 69 1010.6
20260510004805 67 339 0.0 0.0 0.00 0.00 0.00 66 1010.6
20260510004303 68 332 0.0 1.0 0.00 0.00 0.00 66 1010.5
20260510003759 68 322 0.0 0.0 0.00 0.00 0.00 65 1010.6
20260510003257 68 322 0.0 0.0 0.00 0.00 0.00 64 1010.5
20260510002755 69 329 0.0 1.0 0.00 0.00 0.00 64 1010.5
20260510002253 69 35 0.0 0.0 0.00 0.00 0.00 62 1010.3
20260510001749 69 4 0.0 0.0 0.00 0.00 0.00 61 1010.3
20260510001248 70 323 0.0 1.0 0.00 0.00 0.00 61 1010.3
20260510000743 70 297 0.0 1.0 0.00 0.00 0.00 60 1010.3
20260510000241 71 322 0.0 2.0 0.00 0.00 0.00 58 1010.1
20260509235738 71 343 0.0 1.0 0.00 0.00 0.00 58 1010.1
20260509235234 72 333 0.0 1.0 0.00 0.00 0.00 55 1009.8
20260509234730 72 322 0.0 1.0 0.00 0.00 0.00 56 1009.8
20260509234227 73 321 0.0 1.0 0.00 0.00 0.00 54 1009.9
20260509233725 73 299 0.0 1.0 0.00 0.00 0.00 54 1010.1
20260509233223 73 329 1.0 1.0 0.00 0.00 0.00 53 1010.2
20260509232718 73 232 2.0 3.0 0.00 0.00 0.00 52 1010.0
20260509232216 74 275 0.0 2.0 0.00 0.00 0.00 52 1009.9
20260509231712 74 23 1.0 1.0 0.00 0.00 0.00 53 1010.0
20260509231209 74 256 0.0 3.0 0.00 0.00 0.00 52 1010.3
20260509230706 74 273 1.0 3.0 0.00 0.00 0.00 51 1010.1
20260509230157 74 219 3.0 3.0 0.00 0.00 0.00 51 1010.2
20260509225653 74 201 0.0 5.0 0.00 0.00 0.00 51 1010.0
20260509225149 74 283 0.0 2.0 0.00 0.00 0.00 51 1009.9
20260509224645 75 206 2.0 3.0 0.00 0.00 0.00 51 1009.9
20260509224142 75 80 2.0 2.0 0.00 0.00 0.00 51 1010.0
20260509223639 75 233 2.0 2.0 0.00 0.00 0.00 50 1010.0
20260509223136 75 227 1.0 3.0 0.00 0.00 0.00 50 1009.7
20260509222633 75 246 2.0 2.0 0.00 0.00 0.00 50 1009.9
20260509222128 75 56 0.0 5.0 0.00 0.00 0.00 50 1009.9
20260509221624 75 187 1.0 3.0 0.00 0.00 0.00 50 1010.1
20260509221120 74 241 1.0 3.0 0.00 0.00 0.00 51 1010.0
20260509220616 75 312 1.0 2.0 0.00 0.00 0.00 53 1009.9
20260509220113 75 306 0.0 3.0 0.00 0.00 0.00 52 1009.9
20260509215609 75 333 0.0 3.0 0.00 0.00 0.00 51 1009.9
20260509215106 76 211 0.0 2.0 0.00 0.00 0.00 49 1009.9
20260509214603 75 250 0.0 4.0 0.00 0.00 0.00 48 1009.8
20260509214100 75 223 2.0 3.0 0.00 0.00 0.00 49 1009.9
20260509213555 74 288 2.0 4.0 0.00 0.00 0.00 51 1010.0
20260509213052 74 263 0.0 3.0 0.00 0.00 0.00 50 1009.8
20260509212550 75 262 2.0 3.0 0.00 0.00 0.00 50 1009.7
20260509212046 75 144 2.0 4.0 0.00 0.00 0.00 51 1009.7
20260509211542 75 282 0.0 4.0 0.00 0.00 0.00 51 1009.6
20260509211039 75 325 1.0 2.0 0.00 0.00 0.00 53 1009.8
20260509210535 75 152 2.0 3.0 0.00 0.00 0.00 53 1009.7
20260509210031 75 216 1.0 3.0 0.00 0.00 0.00 52 1009.7
20260509205526 75 167 0.0 2.0 0.00 0.00 0.00 52 1009.8
20260509205022 75 113 0.0 3.0 0.00 0.00 0.00 52 1009.7
20260509204519 76 299 1.0 2.0 0.00 0.00 0.00 49 1009.4
20260509204015 76 267 1.0 4.0 0.00 0.00 0.00 50 1009.7
20260509203511 77 292 2.0 3.0 0.00 0.00 0.00 50 1009.4
20260509203009 76 297 2.0 6.0 0.00 0.00 0.00 51 1009.5
20260509202503 76 195 2.0 6.0 0.00 0.00 0.00 51 1009.3
20260509201959 75 296 4.0 5.0 0.00 0.00 0.00 51 1009.6
20260509201454 76 223 5.0 5.0 0.00 0.00 0.00 48 1009.4
20260509200952 76 203 2.0 6.0 0.00 0.00 0.00 49 1009.5
20260509200447 75 263 2.0 5.0 0.00 0.00 0.00 50 1009.8
20260509195943 75 279 2.0 4.0 0.00 0.00 0.00 51 1009.7
20260509195439 75 248 3.0 7.0 0.00 0.00 0.00 51 1010.0
20260509194938 76 288 3.0 5.0 0.00 0.00 0.00 50 1009.8
20260509194434 76 313 1.0 4.0 0.00 0.00 0.00 50 1010.0
20260509193931 77 168 3.0 4.0 0.00 0.00 0.00 49 1010.0
20260509193431 77 181 2.0 4.0 0.00 0.00 0.00 47 1010.0
20260509192927 77 246 3.0 3.0 0.00 0.00 0.00 48 1010.3
20260509192424 77 234 5.0 6.0 0.00 0.00 0.00 47 1010.2
20260509191919 76 227 2.0 3.0 0.00 0.00 0.00 48 1009.9
20260509191414 76 169 3.0 5.0 0.00 0.00 0.00 49 1010.1
20260509190911 77 150 2.0 4.0 0.00 0.00 0.00 48 1010.3